Regional Weather Roundup
Issued by NWS

Home | Current Version | Previous Version | Graphics & Text | Print | Product List | Glossary On
Versions: 1 2 3 4 5 6 7 8 9 10 11 12 13 14 15 16 17 18 19 20 21 22 23 24 25 26 27 28 29 30 31 32 33 34 35 36 37 38 39 40 41 42 43 44 45 46 47 48 49 50
682
ASUS45 KSLC 210710
RWRUT

UTAH REGIONAL WEATHER ROUNDUP
NATIONAL WEATHER SERVICE SALT LAKE CITY UT
100 AM MDT SAT APR 21 2018

UTZ001>011-023>025-210800-

NORTHERN UTAH

CITY           SKY/WX    TMP DP  RH WIND       PRES   REMARKS
BRIGHAM CITY   CLEAR     51  30  45 N6        30.11R
HILL AFB       CLEAR     51  31  46 CALM      30.11R
LOGAN          CLEAR     47  32  56 SW9       30.12R
OGDEN          CLEAR     49  32  52 W3        30.10R
SALT LAKE CITY PTCLDY    52  40  63 CALM      30.10R
TOOELE VALLEY  CLEAR     39  34  81 SE10      30.12R WCI  32
WENDOVER       CLEAR     55  20  25 NW24G30   30.12S
HEBER CITY       N/A     41  30  65 NE5       30.10R
WEST JORDAN    CLEAR     50  34  55 CALM      30.12R

$$

UTZ011>015-024>027-210800-

CENTRAL/NORTHEAST UTAH

CITY           SKY/WX    TMP DP  RH WIND       PRES   REMARKS
PROVO AIRPORT  CLEAR     45  40  82 N6        30.14R
MOAB/CANYONLAN LGT RAIN  46  43  89 W10       30.08R
DELTA          CLEAR     41  36  81 E5        30.16R
PRICE          CLEAR     34  34 100 NE6       30.11R WCI  29
RICHFIELD      CLEAR     37  36  93 CALM      30.18
ROOSEVELT      MOCLDY    41  37  87 CALM      30.12R
VERNAL         PTCLDY    40  39  97 E5        30.11R

$$

UTZ013>016-019>022-027-210800-

SOUTHERN UTAH

CITY           SKY/WX    TMP DP  RH WIND       PRES   REMARKS
BRYCE CANYON   CLEAR     32  26  78 N5        30.19R WCI  27
CEDAR CITY     CLEAR     37  33  85 CALM      30.17R
MILFORD        CLEAR     39  39 100 S10       30.16R WCI  32
ST GEORGE      SUNNY     53  34  48 S5        30.12R
HANKSVILLE     PTCLDY    46  34  61 E5        30.13R
KANAB          CLEAR     39  27  60 CALM      30.20
BLANDING         N/A     42  33  69 W14       30.15R

$$

REGIONAL REPORTS     COLORADO/ARIZONA

CITY           SKY/WX    TMP DP  RH WIND       PRES   REMARKS
CRAIG, CO      CLOUDY    38  34  85 W5        30.05R WCI  34
GRAND JUNCTION CLOUDY    42  39  89 SE5       30.07R
RIFLE, CO      LGT SNOW  35  33  92 E3        30.07R FOG
MONTROSE, CO   LGT RAIN  37  34  89 S10       30.10S WCI  30
CORTEZ, CO     CLOUDY    38  28  67 CALM      30.10R
COLORADO CITY    N/A     36  32  87 CALM      30.19R
PAGE, AZ       CLEAR     47  38  71 S3        30.11R
GRAND CANYON   CLEAR     27  25  92 CALM      30.22R
KINGMAN, AZ    CLEAR     56  21  25 SE14      30.11R
FLAGSTAFF, AZ  CLEAR     26  24  92 CALM      30.21R

$$

REGIONAL REPORTS    NEVADA/IDAHO/WYOMING

CITY           SKY/WX    TMP DP  RH WIND       PRES   REMARKS
LAS VEGAS, NV  CLEAR     68  34  28 N8        30.06R
ELY, NY        CLEAR     40  17  39 W7        30.24R
ELKO, NV       CLEAR     37  26  64 CALM      30.22S
POCATELLO, ID  CLEAR     50  26  39 SW14      30.14R
BURLEY, ID     CLEAR     45  21  38 SW12      30.13R
FORT BRIDGER,  CLOUDY    37  36  96 NW3       30.18R
EVANSTON, WY   CLEAR     43  26  51 N5        30.15R
ROCK SPRINGS,  CLOUDY    37  30  75 NW5       30.15R WCI  33
KEMMERER, WY   CLEAR     34  32  93 N5        30.15S WCI  30

$$




USA.gov is the U.S. government's official web portal to all federal, state and local government web resources and services.